When you browse on this site, cookies collect data to enhance your experience and personalize the content and advertising you see.
Visit our Privacy Policy to learn more. By continuing to use the site, you agree to this use of cookies and data.
  • Em Portugal
  • Lista de países
  • Para 7 dias
  • Temperatura da água
  • Mapa do tempo
  • Widgets de tempo
  • user-avatar
    Iniciar Sessão

    Previsão horária em Krosna

    Hoje, 20 Setembro, Sexta-feira

    Tempo Temperatura Precipitação Vento Pressão Humidade
    00:00 +4°C° 0 mm 2 m/s 738 mmHg 92%
    01:00 +4°C° 0 mm 2 m/s 739 mmHg 92%
    02:00 +4°C° 0 mm 2 m/s 739 mmHg 92%
    03:00 +4°C° 0 mm 2 m/s 739 mmHg 92%
    04:00 +4°C° 0 mm 2 m/s 738 mmHg 93%
    05:00 +4°C° 0 mm 2 m/s 739 mmHg 91%
    06:00 +5°C° 0 mm 2 m/s 739 mmHg 89%
    07:00 +6°C° 0 mm 2 m/s 739 mmHg 86%
    08:00 +8°C° 0 mm 3 m/s 739 mmHg 79%
    09:00 +9°C° 0 mm 3 m/s 739 mmHg 72%
    10:00 +11°C° 0 mm 4 m/s 739 mmHg 66%
    11:00 +12°C° 0.2 mm 4 m/s 739 mmHg 62%
    12:00 +12°C° 0.2 mm 5 m/s 739 mmHg 59%
    13:00 +13°C° 0.2 mm 5 m/s 738 mmHg 56%
    14:00 +12°C° 0.1 mm 4 m/s 738 mmHg 58%
    15:00 +12°C° 0.1 mm 4 m/s 738 mmHg 60%
    16:00 +12°C° 0.1 mm 3 m/s 738 mmHg 63%
    17:00 +10°C° 0 mm 3 m/s 738 mmHg 69%
    18:00 +9°C° 0 mm 2 m/s 738 mmHg 75%
    19:00 +8°C° 0 mm 1 m/s 738 mmHg 82%
    20:00 +8°C° 0 mm 1 m/s 738 mmHg 83%
    21:00 +6°C° 0 mm 2 m/s 739 mmHg 84%
    22:00 +6°C° 0 mm 2 m/s 739 mmHg 85%
    23:00 +6°C° 0 mm 2 m/s 739 mmHg 85%

    Amanhã, 21 Setembro, Sábado

    Tempo Temperatura Precipitação Vento Pressão Humidade
    00:00 +6°C° 0 mm 2 m/s 739 mmHg 86%
    01:00 +5°C° 0 mm 2 m/s 739 mmHg 87%
    02:00 +5°C° 0 mm 2 m/s 739 mmHg 88%
    03:00 +5°C° 0 mm 2 m/s 739 mmHg 88%
    04:00 +5°C° 0 mm 2 m/s 738 mmHg 88%
    05:00 +6°C° 0 mm 2 m/s 739 mmHg 85%
    06:00 +7°C° 0 mm 2 m/s 739 mmHg 81%
    07:00 +8°C° 0 mm 2 m/s 739 mmHg 78%
    08:00 +10°C° 0 mm 2 m/s 739 mmHg 69%
    09:00 +13°C° 0 mm 2 m/s 739 mmHg 61%
    10:00 +16°C° 0 mm 2 m/s 739 mmHg 53%
    11:00 +18°C° 0 mm 1 m/s 739 mmHg 51%
    12:00 +19°C° 0 mm 1 m/s 738 mmHg 49%
    13:00 +19°C° 0 mm 1 m/s 738 mmHg 47%
    14:00 +19°C° 0 mm 1 m/s 738 mmHg 50%
    15:00 +19°C° 0 mm 1 m/s 737 mmHg 54%
    16:00 +18°C° 0 mm 1 m/s 737 mmHg 57%
    17:00 +15°C° 0 mm 1 m/s 737 mmHg 64%
    18:00 +13°C° 0 mm 1 m/s 737 mmHg 71%
    19:00 +11°C° 0 mm 1 m/s 737 mmHg 78%
    20:00 +11°C° 0 mm 1 m/s 737 mmHg 79%
    21:00 +10°C° 0 mm 1 m/s 737 mmHg 80%
    22:00 +10°C° 0 mm 1 m/s 737 mmHg 81%
    23:00 +10°C° 0 mm 1 m/s 737 mmHg 81%

    Depois de amanhã, 22 Setembro, Domingo

    Tempo Temperatura Precipitação Vento Pressão Humidade
    00:00 +9°C° 0 mm 1 m/s 737 mmHg 81%
    01:00 +9°C° 0 mm 1 m/s 736 mmHg 81%
    02:00 +9°C° 0 mm 1 m/s 736 mmHg 81%
    03:00 +9°C° 0 mm 1 m/s 736 mmHg 81%
    04:00 +9°C° 0 mm 1 m/s 736 mmHg 81%
    05:00 +9°C° 0 mm 1 m/s 736 mmHg 78%
    06:00 +10°C° 0 mm 1 m/s 736 mmHg 76%
    07:00 +11°C° 0 mm 1 m/s 736 mmHg 73%
    08:00 +14°C° 0 mm 1 m/s 736 mmHg 65%
    09:00 +16°C° 0 mm 1 m/s 736 mmHg 58%
    10:00 +19°C° 0 mm 1 m/s 736 mmHg 50%
    11:00 +20°C° 0 mm 1 m/s 735 mmHg 48%
    12:00 +21°C° 0 mm 1 m/s 735 mmHg 46%
    13:00 +22°C° 0 mm 1 m/s 735 mmHg 44%
    14:00 +22°C° 0 mm 1 m/s 734 mmHg 48%
    15:00 +21°C° 0 mm 1 m/s 733 mmHg 52%
    16:00 +21°C° 0 mm 1 m/s 733 mmHg 56%
    17:00 +19°C° 0 mm 1 m/s 733 mmHg 62%
    18:00 +15°C° 0 mm 1 m/s 733 mmHg 68%
    19:00 +13°C° 0 mm 1 m/s 733 mmHg 74%
    20:00 +12°C° 0 mm 1 m/s 733 mmHg 75%
    21:00 +12°C° 0 mm 1 m/s 733 mmHg 75%
    22:00 +11°C° 0 mm 1 m/s 732 mmHg 75%
    23:00 +11°C° 0 mm 1 m/s 732 mmHg 75%

    23 Setembro, Segunda-feira

    Tempo Temperatura Precipitação Vento Pressão Humidade
    00:00 +11°C° 0 mm 1 m/s 732 mmHg 75%
    01:00 +10°C° 0 mm 1 m/s 732 mmHg 75%
    02:00 +11°C° 0 mm 1 m/s 731 mmHg 72%
    03:00 +11°C° 0 mm 1 m/s 731 mmHg 69%
    04:00 +11°C° 0 mm 1 m/s 731 mmHg 67%
    05:00 +12°C° 0 mm 1 m/s 731 mmHg 65%
    06:00 +12°C° 0 mm 1 m/s 730 mmHg 63%
    07:00 +13°C° 0 mm 1 m/s 730 mmHg 61%
    08:00 +14°C° 0 mm 2 m/s 730 mmHg 60%
    09:00 +15°C° 0 mm 2 m/s 730 mmHg 59%
    10:00 +16°C° 0 mm 2 m/s 731 mmHg 58%
    11:00 +16°C° 0 mm 2 m/s 730 mmHg 61%
    12:00 +16°C° 0 mm 2 m/s 730 mmHg 64%
    13:00 +16°C° 0 mm 2 m/s 730 mmHg 67%
    14:00 +15°C° 0 mm 2 m/s 730 mmHg 69%
    15:00 +15°C° 0 mm 2 m/s 729 mmHg 71%
    16:00 +15°C° 0 mm 1 m/s 729 mmHg 73%
    17:00 +15°C° 0 mm 1 m/s 729 mmHg 74%
    18:00 +14°C° 0 mm 1 m/s 729 mmHg 76%
    19:00 +14°C° 0 mm 1 m/s 729 mmHg 77%
    20:00 +13°C° 0 mm 1 m/s 729 mmHg 77%
    21:00 +13°C° 0 mm 1 m/s 729 mmHg 78%
    22:00 +13°C° 0 mm 1 m/s 729 mmHg 78%
    23:00 +13°C° 0 mm 1 m/s 729 mmHg 79%

    24 Setembro, Terça-feira

    Tempo Temperatura Precipitação Vento Pressão Humidade
    00:00 +13°C° 0 mm 1 m/s 729 mmHg 80%
    01:00 +13°C° 0 mm 1 m/s 729 mmHg 81%
    02:00 +12°C° 0 mm 1 m/s 729 mmHg 81%
    03:00 +11°C° 0 mm 0 m/s 729 mmHg 81%
    04:00 +11°C° 0 mm 0 m/s 728 mmHg 82%
    05:00 +12°C° 0 mm 0 m/s 728 mmHg 81%
    06:00 +12°C° 0 mm 0 m/s 728 mmHg 81%
    07:00 +12°C° 0 mm 0 m/s 728 mmHg 81%
    08:00 +12°C° 0 mm 0 m/s 728 mmHg 79%
    09:00 +13°C° 0 mm 0 m/s 729 mmHg 78%
    10:00 +13°C° 0 mm 0 m/s 729 mmHg 77%
    11:00 +14°C° 0 mm 0 m/s 728 mmHg 77%
    12:00 +14°C° 0 mm 0 m/s 728 mmHg 78%
    13:00 +14°C° 0 mm 0 m/s 728 mmHg 79%
    14:00 +15°C° 0 mm 1 m/s 728 mmHg 78%
    15:00 +15°C° 0 mm 1 m/s 728 mmHg 78%
    16:00 +15°C° 0 mm 1 m/s 728 mmHg 78%
    17:00 +14°C° 0 mm 1 m/s 728 mmHg 82%
    18:00 +13°C° 0 mm 1 m/s 728 mmHg 85%
    19:00 +12°C° 0 mm 1 m/s 729 mmHg 89%
    20:00 +11°C° 0 mm 1 m/s 729 mmHg 90%
    21:00 +11°C° 0 mm 1 m/s 729 mmHg 90%
    22:00 +10°C° 0 mm 0 m/s 729 mmHg 91%
    23:00 +10°C° 0 mm 0 m/s 729 mmHg 91%

    25 Setembro, Quarta-feira

    Tempo Temperatura Precipitação Vento Pressão Humidade
    00:00 +9°C° 0 mm 0 m/s 729 mmHg 92%
    01:00 +9°C° 0 mm 0 m/s 729 mmHg 92%
    02:00 +9°C° 0 mm 0 m/s 728 mmHg 92%
    03:00 +9°C° 0 mm 0 m/s 728 mmHg 92%
    04:00 +9°C° 0 mm 0 m/s 728 mmHg 93%
    05:00 +10°C° 0 mm 0 m/s 728 mmHg 91%
    06:00 +10°C° 0 mm 0 m/s 728 mmHg 89%
    07:00 +11°C° 0 mm 0 m/s 728 mmHg 87%
    08:00 +14°C° 0 mm 1 m/s 729 mmHg 81%
    09:00 +16°C° 0 mm 1 m/s 729 mmHg 75%
    10:00 +18°C° 0 mm 2 m/s 729 mmHg 69%
    11:00 +19°C° 0 mm 1 m/s 729 mmHg 66%
    12:00 +20°C° 0 mm 1 m/s 729 mmHg 64%
    13:00 +21°C° 0 mm 1 m/s 728 mmHg 61%
    14:00 +20°C° 0.1 mm 1 m/s 728 mmHg 66%
    15:00 +20°C° 0.1 mm 1 m/s 728 mmHg 70%
    16:00 +19°C° 0.1 mm 1 m/s 728 mmHg 75%
    17:00 +18°C° 0.1 mm 1 m/s 728 mmHg 79%
    18:00 +15°C° 0.1 mm 1 m/s 728 mmHg 84%
    19:00 +14°C° 0.1 mm 1 m/s 728 mmHg 88%
    20:00 +14°C° 0 mm 1 m/s 728 mmHg 88%
    21:00 +15°C° 0 mm 1 m/s 728 mmHg 87%
    22:00 +15°C° 0 mm 1 m/s 728 mmHg 86%
    23:00 +15°C° 0.1 mm 1 m/s 728 mmHg 87%
    Mostrar mais